OpenBCM V1.13 (Linux)

Packet Radio Mailbox

DB0FHN

[JN59NK Nuernberg]

 Login: GUEST





  
LU9DCE > KEP      30.03.19 20:34l 254 Lines 12387 Bytes #999 (0) @ WW
BID : 20759_LU9DCE
Read: DF7EAV DK3UZ GUEST
Subj: TLE 30 03
Path: DB0FHN<DB0BLO<DB0ERF<DB0RES<DB0EEO<DB0GOS<ON0AR<GB7CIP<N3HYM<LU3DVN<
      LU9DCE
Sent: 190330/1837Z 20759@LU9DCE.TOR.BA.ARG.SOAM LinBPQ6.0.18

            __    _  _  ___  ____   ___  ____    ____  ____  ____
           (  )  / )( \/ _ \(    \ / __)(  __)  (  _ \(  _ \/ ___)
           / (_/\) \/ (\__  )) D (( (__  ) _)    ) _ ( ) _ (\___ \
           \____/\____/(___/(____/ \___)(____)  (____/(____/(____/
               ESTACION DE PACKET RADIO - BUENOS AIRES (GF05OM)
                   BOLETINES INFORMATIVOS PROGRAMADOS (BIP)
                  SOPORTE TECNICO - HELLOCODELINUX@GMAIL.COM

+----------------------------------------------------------------------------+
OSCAR 7
1  7530U 74089B   19089.51569194 -.00000019  00000-0  16074-3 0  9992
2  7530 101.7349  58.0284 0012320 140.4464 331.2944 12.53637400 30471
OSCAR 11 (UoSAT 2)
1 14781U 84021B   19089.54739247  .00000045  00000-0  11603-4 0  9998
2 14781  97.6193 118.0214 0007597 214.3118 145.7607 14.83072381886888
OSCAR 19 (LUSAT)
1 20442U 90005G   19088.32037287 +.00000002 +00000-0 +16993-4 0  9998
2 20442 098.6414 030.4902 0012436 034.0062 326.1916 14.32920674524664
EYESAT A
1 22825U 93061C   19088.54829094 -.00000000 +00000-0 +17936-4 0  9996
2 22825 098.8984 075.3557 0007521 230.8959 129.1554 14.30054246330080
ITAMSAT
1 22826U 93061D   19089.54816300 -.00000000  00000-0  17736-4 0  9992
2 22826  98.8925  76.3792 0008238 215.9443 144.1185 14.30387480330699
RADIO ROSTO
1 23439U 94085A   19088.54169296 -.00000029 +00000-0 +38697-3 0  9993
2 23439 064.8146 247.3536 0148105 128.8167 232.6086 11.27568255998740
JAS 2
1 24278U 96046B   19089.46944342 -.00000024  00000-0  88578-5 0  9999
2 24278  98.5250 253.8100 0351366  88.1127 276.0210 13.53090145116955
TECHSAT 1B
1 25397U 98043D   19088.44492010 -.00000016  00000-0  11992-4 0  9994
2 25397  98.6817  29.6051 0000170 302.1825  57.9337 14.23662449 76311
ISS (ZARYA)
1 25544U 98067A   19089.55138889  .00002167  00000-0  42293-4 0  9994
2 25544  51.6429  32.1304 0002448 131.8282 202.6721 15.52459091163039
PCSAT
1 26931U 01043C   19088.60963901 -.00000031 +00000-0 +19926-4 0  9995
2 26931 067.0513 212.9084 0005581 276.3140 083.7325 14.30536464913303
SAUDISAT 1C
1 27607U 02058C   19088.55524813 -.00000026 +00000-0 +17258-4 0  9992
2 27607 064.5542 297.6586 0082377 271.9739 087.1931 14.75530276874938
CUTE-1
1 27844U 03031E   19088.60443319 +.00000048 +00000-0 +41191-4 0  9990
2 27844 098.6867 098.0212 0008651 265.2318 094.7872 14.22166947816723
CUBESAT XI 4
1 27848U 03031J   19089.48840294  .00000034  00000-0  35343-4 0  9991
2 27848  98.6946  99.3738 0008536 274.9268  85.0935 14.21763702816741
MOZHAYETS 4
1 27939U 03042A   19089.55123643  .00000050  00000-0  17591-4 0  9997
2 27939  98.0259 226.9911 0011862 326.5617  33.4840 14.66763601828799
CUBESAT XI 5
1 28895U 05043F   19088.56654463 +.00000126 +00000-0 +33132-4 0  9994
2 28895 097.9453 234.1391 0015596 245.5406 114.4171 14.63642429715380
CUTE-1.7+APD II
1 32785U 08021C   19088.46831531 +.00000191 +00000-0 +26277-4 0  9992
2 32785 097.5496 092.0182 0013404 165.7190 194.4409 14.88269140591537
DELFI C3
1 32789U 08021G   19088.60369822 +.00001046 +00000-0 +74272-4 0  9999
2 32789 097.4746 140.6840 0013344 049.3872 310.8514 15.06750413594652
SEEDS
1 32791U 08021J   19088.48872775 +.00000310 +00000-0 +36897-4 0  9998
2 32791 097.5304 097.9177 0014337 143.0679 217.1530 14.90761209591935
YUBELEINY
1 32953U 08025A   19089.56296272  .00000020  00000-0  75656-4 0  9998
2 32953  82.5071 194.5834 0017813 305.3452  54.5959 12.43088300492352
PRISM (HITOMI)
1 33493U 09002B   19089.49868063  .00000432  00000-0  43475-4 0  9990
2 33493  98.1221   7.4162 0016398  88.7851 271.5248 14.96553321553158
KKS-1 (KISEKI)
1 33499U 09002H   19089.51455258  .00000062  00000-0  17229-4 0  9994
2 33499  98.3549 285.6392 0010469 100.5832 259.6556 14.75417786547400
SWISSCUBE
1 35932U 09051B   19088.45194768  .00000114  00000-0  36746-4 0  9993
2 35932  98.5780 252.0863 0008557  60.5439 299.6611 14.56256974504955
BEESAT
1 35933U 09051C   19088.52869014 +.00000087 +00000-0 +30715-4 0  9994
2 35933 098.5814 253.8826 0006918 072.8661 287.3293 14.56349612504990
ITUPSAT 1
1 35935U 09051E   19088.40218785 +.00000080 +00000-0 +29493-4 0  9990
2 35935 098.5925 253.9955 0009198 068.9910 291.2269 14.55513351504781
XIWANG-1 (HOPE-1)
1 36122U 09072B   19088.41070822 -.00000047 +00000-0 -12820-4 0  9992
2 36122 100.0755 094.6136 0007898 167.8837 192.2468 13.16348850446189
TISAT 1
1 36799U 10035E   19089.55673397  .00000452  00000-0  51812-4 0  9997
2 36799  98.1432 239.1087 0011964 355.3303   4.7801 14.91037184472827
JUGNU
1 37839U 11058B   19088.45010428  .00000309  00000-0  23043-4 0  9993
2 37839  19.9607 107.4310 0019012 150.5165 357.6474 14.12645576385751
SRMSAT
1 37841U 11058D   19089.50894375  .00000292  00000-0  15326-4 0  9990
2 37841  19.9710 156.1282 0012061  36.5246  83.8272 14.10627578385358
M-CUBED/EXP-1 PRIME
1 37855U 11061F   19088.57555998 +.00000734 +00000-0 +45082-4 0  9993
2 37855 101.7264 302.4929 0174146 317.2448 041.5324 15.05221583404102
HORYU 2
1 38340U 12025D   19088.61637242 +.00000129 +00000-0 +26972-4 0  9997
2 38340 098.3391 124.7330 0011985 029.0154 331.1718 14.75684026358797
STRAND 1
1 39090U 13009E   19088.55937887 +.00000026 +00000-0 +24351-4 0  9999
2 39090 098.4969 295.8393 0009409 163.1476 197.0024 14.35075721318737
SOMP
1 39134U 13015E   19088.56752680  .00000993  00000-0  55204-4 0  9996
2 39134  64.8623 283.2210 0023316 315.8017  44.1247 15.19931060328267
BEESAT 3
1 39135U 13015F   19088.01703121 +.00000605 +00000-0 +40039-4 0  9993
2 39135 064.8672 302.1785 0010307 304.8015 055.2141 15.17280335327469
BEESAT 2
1 39136U 13015G   19088.02383408  .00000546  00000-0  37631-4 0  9995
2 39136  64.8690 305.7285 0011714 299.7893  60.2067 15.16724254327783
CUBEBUG 1
1 39153U 13018D   19089.47396814  .00000163  00000-0  28184-4 0  9990
2 39153  97.9741 188.0747 0018395  98.4616 261.8682 14.80531371319958
ZACUBE
1 39417U 13066B   19089.51219181  .00000178  00000-0  28924-4 0  9990
2 39417  97.5678 107.4994 0057548 297.5780  61.9595 14.81075095289171
TRITON 1
1 39427U 13066M   19088.60658054 +.00000228 +00000-0 +44048-4 0  9997
2 39427 097.6691 071.0306 0115302 065.4213 295.8957 14.67798173286256
GOMX 1
1 39430U 13066Q   19089.53284038  .00000167  00000-0  38890-4 0  9991
2 39430  97.7381  51.4114 0151771 146.4680 214.6227 14.59212133284912
HUMSAT D
1 39433U 13066T   19088.60669849 +.00000435 +00000-0 +47871-4 0  9995
2 39433 097.5644 139.3834 0030181 208.5390 151.4178 14.92115036289806
CUBEBUG 2
1 39440U 13066AA  19088.59472262 +.00000208 +00000-0 +35991-4 0  9990
2 39440 097.6020 091.8239 0080015 349.5698 010.3849 14.75813225286814
FUNCUBE 1
1 39444U 13066AE  19088.61146581 +.00000219 +00000-0 +33466-4 0  9996
2 39444 097.5666 108.5124 0056617 294.6750 064.8575 14.81884787287338
UWE-3
1 39446U 13066AG  19088.60233005 +.00000186 +00000-0 +31504-4 0  9999
2 39446 097.5837 098.7474 0069151 325.7649 033.9114 14.78347992286690
SPROUT
1 39770U 14029E   19089.50369897  .00000393  00000-0  49716-4 0  9992
2 39770  97.8801 193.3603 0008701 359.0325   1.0878 14.87228434262916
UNISAT 6
1 40012U 14033C   19088.62013445 +.00000139 +00000-0 +28174-4 0  9998
2 40012 097.7700 318.6655 0058466 000.8587 359.2711 14.73942475256748
DUCHIFAT 1
1 40021U 14033M   19089.45964673  .00000430  00000-0  49884-4 0  9993
2 40021  97.9226  13.8000 0012056 320.5213  39.5125 14.90558197259590
QB50P1
1 40025U 14033R   19089.52568892  .00000259  00000-0  33566-4 0  9997
2 40025  97.9064   9.3401 0011749 329.5124  30.5409 14.88891214259398
CHUBUSAT 1
1 40300U 14070C   19089.52482813  .00000604  00000-0  29392-4 0  9998
2 40300  97.3345 165.7175 0019598 342.5382 142.3805 15.21967136243824
NUDT-PHONESAT
1 40900U 15049B   19089.40356816  .00001906  00000-0  85258-4 0  9990
2 40900  97.4407  99.5386 0014850 104.2463   1.5808 15.22429380195445
ZDPS 2A
1 40901U 15049C   19089.57271479  .00000581  00000-0  32233-4 0  9993
2 40901  97.4618  96.5595 0015150 117.3296   0.5571 15.17571190195089
ZDPS 2B
1 40902U 15049D   19089.52076917  .00000658  00000-0  36251-4 0  9998
2 40902  97.4550  94.1140 0015219 115.1118   1.3923 15.17345076195059
XW-2A
1 40903U 15049E   19089.49236623  .00001830  00000-0  45529-4 0  9998
2 40903  97.3488 131.7709 0015770  78.4207  27.8256 15.41519077197897
KAITUO 1A
1 40904U 15049F   19089.51287546  .00000090  00000-0  82820-5 0  9995
2 40904  97.4671  92.9019 0016050 121.3864  33.7262 15.15279445194853
OBJECT G
1 40905U 15049G   19089.52977455  .00000633  00000-0  38121-4 0  9999
2 40905  97.4701  90.5710 0017199 116.4291   1.1310 15.14217877194745
XW-2C
1 40906U 15049H   19089.38840073  .00000599  00000-0  34972-4 0  9990
2 40906  97.4683  92.8071 0016431 114.2888 351.5595 15.15559141194837
XW-2D
1 40907U 15049J   19089.57580080  .00000345  00000-0  21509-4 0  9992
2 40907  97.4660  92.6696 0016016 110.7927   6.0860 15.15735872194876
LILACSAT 2
1 40908U 15049K   19089.41446240  .00000444  00000-0  28190-4 0  9998
2 40908  97.4784  91.4828 0017463 116.8501 349.2620 15.13732535194664
XW-2F
1 40910U 15049M   19089.41267105  .00001056  00000-0  56523-4 0  9993
2 40910  97.4636  94.3418 0016793 106.7958   3.0534 15.17111455194844
XW-2B
1 40911U 15049N   19089.40561889  .00000809  00000-0  45902-4 0  9993
2 40911  97.4685  93.1303 0015950 112.7981 357.6785 15.15672334194747
KAITUO 1B
1 40912U 15049P   19089.29213288  .00000887  00000-0  45029-4 0  9994
2 40912  97.4521  97.6939 0016967  92.5530 325.2983 15.19397097195101
TIANWANG 1C (TW-1C)
1 40926U 15051B   19089.40288391  .00009963  00000-0  15596-3 0  9991
2 40926  97.1464 135.7331 0007013 319.1548 161.4211 15.53912437197686
